ZIYUAN 3-2 (ZY 3-2)

Last updated on Thu Oct 30 2025 00:02:31 GMT+0000 (Coordinated Universal Time)

1 41556U 16033A 25302.52036918 .00009060 00000+0 40910-3 0 9991 2 41556 97.4079 17.4109 0012700 49.7151 310.5193 15.21127842522912
UTC large
Height (km)
Speed (km/s)
/
Latitude / Longitude
Inclination (degrees)
Orbital Period (minutes)
Azimuth
Elevation
Range (km)
Doppler Factor

Next 0 passes for location: London (51.5072 / 0.1276)

Sorry there are no passes over London.